Other Public Products
Issued by NWS Grand Forks, ND

Home | Current Version | Previous Version | Graphics & Text | Print | Product List | Glossary On
Versions: 1 2 3 4 5 6 7 8 9 10 11 12 13 14 15 16 17 18 19 20 21 22 23 24 25 26 27 28 29 30 31 32 33 34 35 36 37 38 39 40 41 42 43 44 45 46 47 48 49 50
000
FPUS83 KFGF 051131
OPUFGF
PRAIRIE TO PINES WEATHER ROUNDUP
NATIONAL WEATHER SERVICE EASTERN NORTH DAKOTA/GRAND FORKS ND
600 AM CDT THU MAY 05 2016

 **SATELLITE DATA USED TO AUGMENT SKY COVER AT AUTOMATED STATIONS**
 *****  WEATHER ACROSS EASTERN NORTH DAKOTA  *****

CITY           SKY/WX    TMP DP  RH WIND       PRES   REMARKS
GRAND FORKS    PTCLDY    50  33  52 S7        29.83S
GRAND FORKS AF CLEAR     64  43  45 W15       29.81F
GRAND CITY NWS NOT AVBL
BUXTON           N/A     49  35  58 S8          N/A
DEVILS LAKE    PTCLDY    56  45  66 SW9       29.86S
FARGO          CLEAR     53  31  42 S14       29.90S
WAHPETON ARPT  SUNNY     45  30  57 SE8       29.96R
$$

 *****  WEATHER ACROSS CENTRAL AND WESTERN NORTH DAKOTA  *****

CITY           SKY/WX    TMP DP  RH WIND       PRES   REMARKS
JAMESTOWN      CLEAR     58  42  55 W15       29.89S
BISMARCK       CLEAR     53  44  71 CALM      29.92F HAZE
MINOT          CLEAR     65  42  43 SW14      29.84S
MINOT AFB      CLEAR     61  44  53 SW13      29.82S
GARRISON         N/A     52  43  71 CALM      29.89S
WILLISTON      PTCLDY    48  41  76 SW5       29.86R
DICKINSON      CLEAR     50  41  71 S13       29.90S
HETTINGER      CLEAR     52  39  61 SE5       29.95F
$$

 *****  OTHER OBSERVATIONS NORTHEAST NORTH DAKOTA  *****

CITY           SKY/WX    TMP DP  RH WIND       PRES   REMARKS
WALHALLA       FAIR      66  45  45 W17G29    29.77S
LANGDON        FAIR      52  43  71 SW14      29.84S
CAVALIER       FAIR      68  45  42 W22G31    29.78R
GRAFTON        FAIR      63  46  55 W18       29.81S
CANDO          FAIR      50  43  76 W8        29.88R
FORT TOTTEN      N/A     59  43  55 SW7       29.95S
ROLLA          FAIR      59  41  51 SW20      29.84R
RUGBY          FAIR      50  45  81 CALM      29.86R
 ***** THE ABOVE OBSERVATIONS ARE NON NWS ARE NOT QUALITY
        CONTROLLED AND MAY MIS-REPORT RAIN FOR SNOW...
$$

 *****  OTHER OBSERVATIONS SOUTHEAST NORTH DAKOTA *****

CITY           SKY/WX    TMP DP  RH WIND       PRES   REMARKS
COOPERSTOWN    NOT AVBL
VALLEY CITY    FAIR      50  41  71 SW7       29.92R
OAKES            N/A    N/A N/A N/A MISG        N/A
GWINNER        FAIR      50  36  57 SW13      29.93S
SHEYENNE NWR     N/A     48  34  59 SW5       29.95S
BUFFALO          N/A     55  35  46 SW12        N/A
WYNDMERE         N/A     45  34  65 SE7         N/A
 ***** THE ABOVE OBSERVATIONS ARE NON NWS ARE NOT QUALITY
       CONTROLLED AND MAY MIS-REPORT RAIN FOR SNOW...
$$

  *****  WEATHER ACROSS NORTHERN MINNESOTA  *****

CITY           SKY/WX    TMP DP  RH WIND       PRES   REMARKS
FLAG ISLAND    CLEAR     48  36  61 S20       29.84F
WARROAD        CLEAR     52  34  50 S12       29.85S
ROSEAU         CLEAR     54  32  43 S18       29.84S
HALLOCK        CLEAR     48  30  49 S13       29.80R
THF RVR FALLS  PTCLDY    52  28  40 S13       29.88S
HALSTAD        NOT AVBL
FOSSTON        PTCLDY    52  28  40 S14       29.92S
BAUDETTE       CLOUDY    45  32  60 SE12      29.91S
WASKISH        CLOUDY    48  32  53 S8        29.92F
CROOKSTON      CLEAR     54  32  43 S15       29.87S
$$
  *****  WEATHER ACROSS CENTRAL AND WEST MINNESOTA  *****

CITY           SKY/WX    TMP DP  RH WIND       PRES   REMARKS
BEMIDJI        PTCLDY    47  26  45 S6        29.97S
PARK RAPIDS    CLOUDY    47  28  47 E8        29.98S
WADENA         PTCLDY    45  30  57 CALM      29.99R
DETROIT LAKES  CLEAR     45  37  76 S7        29.97S
MOORHEAD       CLEAR     48  34  57 S10       29.93S
FERGUS FALLS   CLEAR     48  34  57 SE8       29.96R
ELBOW LAKE     FAIR      46  33  59 E7        29.99R
MORRIS MN      CLEAR     41  34  75 SE8       29.98R
STAPLES        PTCLDY    39  32  75 SE3       29.99F
WHEATON        CLEAR     52  36  54 S8        29.99R
$$
  *****  WEATHER ELSEWHERE ACROSS MINNESOTA  *****

CITY           SKY/WX    TMP DP  RH WIND       PRES   REMARKS
DULUTH         LGT RAIN  42  34  73 SW7       30.00F
INTRNTL FALLS  CLOUDY    45  28  51 W3        29.95R
ELY            CLOUDY    43  30  61 SW7       29.98R
CLOQUET        LGT RAIN  39  34  81 SW6       30.01F
BRAINERD       CLOUDY    36  30  79 CALM      30.01R
HIBBING        CLOUDY    37  32  82 SW3       29.98F
ALEXANDRIA     PTCLDY    47  29  49 S5        30.00R
SAINT CLOUD    CLEAR     40  33  76 CALM      30.02R
MINNEAPOLIS    CLOUDY    47  27  45 S3        30.04R
$$

  *****  WEATHER ACROSS SOUTH DAKOTA  *****

CITY           SKY/WX    TMP DP  RH WIND       PRES   REMARKS
SIOUX FALLS    PTCLDY    39  36  89 CALM      30.04R
BROOKINGS      CLEAR     42  35  76 SE5       30.01S
WATERTOWN      CLEAR     42  34  73 SE6       30.00R
HURON          CLEAR     44  39  82 S5        30.00R
SISSETON         N/A     58  32  37 SW8       29.94S
ABERDEEN       CLEAR     42  36  79 S7        29.97S
MITCHELL       CLEAR     46  41  82 S6        30.02S
PIERRE         CLEAR     44  38  79 CALM      29.98S
MOBRIDGE       CLEAR     50  44  80 SE9       29.94S
RAPID CITY     CLEAR     46  40  79 SE6       29.96F
$$

  *****  SOME WEATHER IN NEARBY STATES *****

CITY           SKY/WX    TMP DP  RH WIND       PRES   REMARKS
GLASGOW MT     CLEAR     53  40  61 E14       29.80F
GREAT FALLS MT CLOUDY    45  39  79 SW6       29.87S
CHEYENNE WY    PTCLDY    46  35  65 W9        30.15R
SCOTTSBLUFF NE CLEAR     49  39  68 E10       30.06S
OMAHA NE       PTCLDY    44  40  85 CALM      30.05R
DES MOINES IA  PTCLDY    45  37  73 CALM      30.04R
DAVENPORT IA   CLEAR     40  34  79 N5        30.00R
CHICAGO IL     PTCLDY    41  33  73 N12       29.93R
EAU CLAIRE WI  PTCLDY    32  28  85 CALM      30.03R
LA CROSSE WI   CLEAR     39  32  76 CALM      30.04R
$$

  *****  SOME NATIONAL WEATHER *****

CITY           SKY/WX    TMP DP  RH WIND       PRES   REMARKS
LA GUARDIA NY  CLOUDY    47  45  93 NE10      29.70S
RALEIGH NC     FOG       57  56  96 NE5       29.55S VSB 1/2
ATLANTA GA     PTCLDY    50  45  83 NW9       29.75S
NEW ORLEANS LA CLEAR     65  56  72 NW8       29.89R
OKLAHOMA CITY  CLEAR     52  41  66 NW6       30.07R
ALBUQUERQUE NM CLEAR     54  25  32 N5        30.19S
SALT LAKE CITY CLOUDY    65  34  31 SE13      29.93R
LOS ANGELES CA MOCLDY    59  53  80 W5        29.91S
BOISE ID       PTCLDY    61  42  49 W9        29.88R
SEATTLE WA     MOCLDY    53  43  68 NE7       30.03S
$$

*** WEATHER ACROSS MANITOBA...SASKATCHEWAN AND ONTARIO ***
                ***ONTARIO***

CITY           SKY/WX    TMP DP  RH WIND       PRES   REMARKS
GERALDTON      FOG       32  32 100 S6        29.95R VSB 1/8
THUNDER BAY    PTCLDY    28  27  93 SW2       29.98S
SIOUX LOOKOUT  MOCLDY    43  37  81 S8        29.84F
TORONTO        MOCLDY    48  43  81 N8        29.80R
BIG TROUT LK   CLEAR     39  28  65 SW8       29.64F
PICKLE LAKE    PTCLDY    41  25  52 S10       29.77
DRYDEN         CLEAR     45  37  76 S15       29.82F
KENORA         PTCLDY    46  34  61 S16G24    29.81S
$$
                *** MANITOBA***

CITY           SKY/WX    TMP DP  RH WIND       PRES   REMARKS
BRANDON        PTCLDY    50  39  66 W12       29.76S
DAUPHIN        CLEAR     63  37  39 SW13      29.67S
ISLAND LAKE    MOCLDY    41  32  70 CALM      29.63R
PILOT MOUND      N/A     52  41  66 SW8         N/A
THE PAS        PTCLDY    45  39  81 SE2       29.55S
THOMPSON       PTCLDY    43  36  75 NE15G23   29.63R
WINNIPEG       PTCLDY    52  37  58 S10       29.73S
LYNN LAKE      LGT RAIN  45  36  70 E13G20    29.65R
CHURCHILL      CLOUDY    23  19  86 NE17G24   29.86R WCI   9
GILLAM         CLOUDY    32  27  80 NE13      29.71R WCI  22
$$
                ***SASKATCHEWAN***

CITY           SKY/WX    TMP DP  RH WIND       PRES   REMARKS
ESTEVAN        PTCLDY    52  43  71 SW10      29.82R
KINDERSLEY     PTCLDY    52  37  58 S10       29.72R
LLOYDMINSTER   MOCLDY    57  41  54 N15G22    29.76R
PRINCE ALBERT  MOCLDY    48  37  66 W5        29.68F
REGINA         PTCLDY    46  34  61 SE8       29.77S
YORKTON        CLEAR     59  39  47 SW10      29.72S   C1F1C2F2C3F3C4F4C5F5C6F6C7F7C8F8C9F9CaFaCbFbCcFcCdFdCe!



USA.gov is the U.S. government's official web portal to all federal, state and local government web resources and services.